GW2922 Weather Reports


Display with metric or nautical units.
time (UTC)temp
F
wind
direction
speed
MPH
gust
MPH
rain 1hr
in
rain 24hr
in
rain mn
in
humidity
%
barometer
mb
20260508185913 52 102 0.0 1.0 0.00 0.00 0.00 76 1022.6
20260508185411 52 108 0.0 1.0 0.00 0.00 0.00 76 1022.6
20260508184908 52 110 0.0 1.0 0.00 0.00 0.00 76 1022.6
20260508184405 52 98 0.0 0.0 0.00 0.00 0.00 77 1022.6
20260508183902 52 105 1.0 6.0 0.00 0.00 0.00 76 1022.6
20260508183358 52 59 0.0 2.0 0.00 0.00 0.00 76 1022.6
20260508182854 52 94 0.0 2.0 0.00 0.00 0.00 77 1022.6
20260508182351 52 102 1.0 2.0 0.00 0.00 0.00 77 1022.3
20260508181846 52 212 2.0 2.0 0.00 0.00 0.00 77 1022.3
20260508181343 51 111 0.0 0.0 0.00 0.00 0.00 78 1022.3
20260508180840 51 71 1.0 2.0 0.00 0.00 0.00 77 1022.6
20260508180337 51 96 0.0 1.0 0.00 0.00 0.00 78 1022.6
20260508175833 51 123 0.0 2.0 0.00 0.00 0.00 79 1022.3
20260508175330 52 93 1.0 1.0 0.00 0.00 0.00 79 1022.3
20260508174828 52 63 1.0 1.0 0.00 0.00 0.00 78 1022.3
20260508174325 52 96 0.0 0.0 0.00 0.00 0.00 78 1022.3
20260508173821 52 85 0.0 0.0 0.00 0.00 0.00 78 1022.3
20260508173319 53 90 0.0 1.0 0.00 0.00 0.00 79 1021.9
20260508172814 53 136 0.0 1.0 0.00 0.00 0.00 79 1021.9
20260508172312 53 108 0.0 0.0 0.00 0.00 0.00 79 1021.9
20260508171808 53 92 0.0 1.0 0.00 0.00 0.00 79 1021.6
20260508171304 53 103 1.0 1.0 0.00 0.00 0.00 79 1021.9
20260508170801 53 169 0.0 2.0 0.00 0.00 0.00 79 1021.9
20260508170259 53 97 1.0 3.0 0.00 0.00 0.00 78 1021.9
20260508165755 53 113 0.0 1.0 0.00 0.00 0.00 78 1021.3
20260508165253 53 95 0.0 1.0 0.00 0.00 0.00 78 1021.3
20260508164743 53 159 2.0 3.0 0.00 0.00 0.00 79 1021.3
20260508164240 53 165 3.0 3.0 0.00 0.00 0.00 78 1021.3
20260508163738 53 153 1.0 2.0 0.00 0.00 0.00 79 1021.3
20260508163236 53 125 0.0 2.0 0.00 0.00 0.00 79 1021.3
20260508162731 53 200 4.0 4.0 0.00 0.00 0.00 78 1020.9
20260508162228 52 70 1.0 1.0 0.00 0.00 0.00 78 1020.9
20260508161725 52 104 0.0 1.0 0.00 0.00 0.00 78 1020.6
20260508161222 52 112 0.0 1.0 0.00 0.00 0.00 78 1020.9
20260508160720 52 118 0.0 2.0 0.00 0.00 0.00 79 1020.9
20260508160218 52 95 0.0 1.0 0.00 0.00 0.00 78 1020.6
20260508155714 52 125 1.0 3.0 0.00 0.00 0.00 78 1020.6
20260508155211 52 150 0.0 4.0 0.00 0.00 0.00 79 1020.6
20260508154708 52 80 1.0 3.0 0.00 0.00 0.00 78 1020.2
20260508154205 52 60 1.0 2.0 0.00 0.00 0.00 79 1020.6
20260508153702 52 129 0.0 2.0 0.00 0.00 0.00 79 1020.6
20260508153159 52 83 0.0 2.0 0.00 0.00 0.00 80 1020.6
20260508152655 52 300 3.0 3.0 0.00 0.00 0.00 80 1020.9
20260508152151 52 98 1.0 1.0 0.00 0.00 0.00 81 1020.9
20260508151648 51 10 2.0 3.0 0.00 0.00 0.00 82 1020.6
20260508151145 51 45 2.0 3.0 0.00 0.00 0.00 83 1020.6
20260508150642 50 120 1.0 2.0 0.00 0.00 0.00 84 1020.6
20260508150138 50 76 2.0 2.0 0.00 0.00 0.00 84 1020.6
20260508145634 50 279 1.0 3.0 0.00 0.00 0.00 85 1020.6
20260508145131 50 135 1.0 1.0 0.00 0.00 0.00 85 1020.6
20260508144628 50 275 1.0 2.0 0.00 0.00 0.00 85 1020.6
20260508144126 50 111 2.0 2.0 0.00 0.00 0.00 85 1020.6
20260508143623 50 239 1.0 2.0 0.00 0.00 0.00 85 1020.2
20260508143120 50 143 0.0 1.0 0.00 0.00 0.00 85 1020.2
20260508142617 50 208 0.0 1.0 0.00 0.00 0.00 85 1020.2
20260508142113 50 125 0.0 1.0 0.00 0.00 0.00 85 1020.2
20260508141610 50 141 1.0 2.0 0.00 0.00 0.00 85 1019.9
20260508141108 50 96 0.0 1.0 0.00 0.00 0.00 85 1019.9
20260508140605 50 117 0.0 0.0 0.00 0.00 0.00 85 1019.9
20260508135557 49 101 1.0 2.0 0.00 0.00 0.00 86 1019.9
20260508135053 49 324 0.0 2.0 0.00 0.00 0.00 86 1019.9
20260508134550 49 143 0.0 0.0 0.00 0.00 0.00 86 1019.9
20260508134047 49 96 1.0 2.0 0.00 0.00 0.00 86 1019.9
20260508133544 49 217 0.0 1.0 0.00 0.00 0.00 86 1019.6
20260508133041 49 89 2.0 3.0 0.00 0.00 0.00 86 1019.6
20260508132539 49 59 1.0 2.0 0.00 0.00 0.00 86 1019.6
20260508132035 49 153 0.0 1.0 0.00 0.00 0.00 87 1019.6
20260508131531 49 101 0.0 1.0 0.00 0.00 0.00 87 1019.6
20260508131028 49 218 1.0 3.0 0.00 0.00 0.00 87 1019.6
20260508130525 49 64 2.0 3.0 0.00 0.00 0.00 87 1019.2
20260508130021 49 307 2.0 3.0 0.00 0.00 0.00 87 1019.6
20260508125517 49 252 1.0 3.0 0.00 0.00 0.00 87 1019.6
20260508125015 49 99 1.0 4.0 0.00 0.00 0.00 87 1019.2
20260508124512 49 267 1.0 2.0 0.00 0.00 0.00 87 1019.2
20260508124009 49 6 3.0 3.0 0.00 0.00 0.00 87 1019.2
20260508123508 49 6 2.0 3.0 0.00 0.00 0.00 87 1019.6
20260508123004 49 284 1.0 2.0 0.00 0.00 0.00 87 1019.2
20260508122501 49 30 1.0 2.0 0.00 0.00 0.00 87 1018.9
20260508121958 49 336 2.0 3.0 0.00 0.00 0.00 87 1019.2
20260508121456 49 337 1.0 3.0 0.00 0.00 0.00 88 1018.9
20260508120954 49 357 1.0 6.0 0.00 0.00 0.00 88 1019.2
20260508120451 48 133 0.0 2.0 0.00 0.00 0.00 88 1019.2
20260508115949 48 358 2.0 3.0 0.00 0.00 0.00 89 1018.9
20260508115447 48 5 0.0 7.0 0.00 0.00 0.00 89 1019.2
20260508114943 48 120 0.0 2.0 0.00 0.00 0.00 90 1018.9
20260508114440 48 121 1.0 3.0 0.00 0.00 0.00 91 1018.9
20260508113937 48 99 0.0 2.0 0.00 0.00 0.00 91 1018.9
20260508113434 47 359 0.0 4.0 0.00 0.00 0.00 92 1018.9
20260508112931 47 123 0.0 0.0 0.00 0.00 0.00 92 1018.9
20260508112428 47 57 0.0 3.0 0.00 0.00 0.00 92 1018.9
20260508111925 47 93 0.0 1.0 0.00 0.00 0.00 92 1018.9
20260508111422 46 83 0.0 0.0 0.00 0.00 0.00 92 1018.5
20260508110919 46 75 0.0 0.0 0.00 0.00 0.00 92 1018.5
20260508110416 46 84 0.0 0.0 0.00 0.00 0.00 92 1018.5
20260508105910 46 81 0.0 0.0 0.00 0.00 0.00 92 1018.5
20260508105407 46 128 0.0 0.0 0.00 0.00 0.00 92 1018.5
20260508104904 46 116 0.0 0.0 0.00 0.00 0.00 91 1018.5
20260508104401 46 113 0.0 0.0 0.00 0.00 0.00 91 1018.5
20260508103858 46 114 0.0 0.0 0.00 0.00 0.00 91 1018.5
20260508103355 46 136 0.0 0.0 0.00 0.00 0.00 91 1018.9
20260508102852 46 116 0.0 0.0 0.00 0.00 0.00 91 1018.5
20260508102351 47 105 0.0 0.0 0.00 0.00 0.00 91 1018.5
20260508101848 47 109 0.0 0.0 0.00 0.00 0.00 91 1018.5
20260508101345 47 115 0.0 0.0 0.00 0.00 0.00 91 1018.5
20260508100842 47 116 0.0 0.0 0.00 0.00 0.00 91 1018.5
20260508100341 47 117 0.0 0.0 0.00 0.00 0.00 90 1018.5
20260508095836 47 123 0.0 0.0 0.00 0.00 0.00 90 1018.5
20260508095334 47 139 0.0 0.0 0.00 0.00 0.00 90 1018.5
20260508094831 47 116 0.0 0.0 0.00 0.00 0.00 90 1018.5
20260508094328 47 116 0.0 0.0 0.00 0.00 0.00 90 1018.5
20260508093825 48 115 0.0 0.0 0.00 0.00 0.00 90 1018.5
20260508093322 48 112 0.0 0.0 0.00 0.00 0.00 89 1018.5
20260508092820 48 116 0.0 0.0 0.00 0.00 0.00 89 1018.5
20260508092318 48 128 0.0 0.0 0.00 0.00 0.00 89 1018.5
20260508091816 48 116 0.0 0.0 0.00 0.00 0.00 89 1018.5
20260508091311 48 116 0.0 0.0 0.00 0.00 0.00 89 1018.5
20260508090810 48 121 0.0 0.0 0.00 0.00 0.00 89 1018.5
20260508090308 48 136 0.0 0.0 0.00 0.00 0.00 88 1018.5
20260508085803 48 136 0.0 0.0 0.00 0.00 0.00 88 1018.5
20260508085300 48 137 0.0 0.0 0.00 0.00 0.00 87 1018.5
20260508084756 47 137 0.0 0.0 0.00 0.00 0.00 87 1018.5
20260508084254 48 119 0.0 0.0 0.00 0.00 0.00 87 1018.5
20260508083751 48 119 0.0 0.0 0.00 0.00 0.00 87 1018.5
20260508083248 48 119 0.0 0.0 0.00 0.00 0.00 87 1018.5
20260508082748 48 119 0.0 0.0 0.00 0.00 0.00 86 1018.9
20260508082246 48 119 0.0 0.0 0.00 0.00 0.00 86 1018.5
20260508081743 48 119 0.0 0.0 0.00 0.00 0.00 86 1018.5
20260508081240 48 131 0.0 0.0 0.00 0.00 0.00 86 1018.9
20260508080737 48 126 0.0 0.0 0.00 0.00 0.00 86 1018.5
20260508080235 48 125 0.0 0.0 0.00 0.00 0.00 86 1018.9
20260508075731 48 118 0.0 0.0 0.00 0.00 0.00 86 1018.9
20260508075228 48 109 0.0 0.0 0.00 0.00 0.00 87 1018.5
20260508074726 48 112 0.0 0.0 0.00 0.00 0.00 87 1018.5
20260508074223 48 98 0.0 0.0 0.00 0.00 0.00 87 1018.9
20260508073720 48 121 0.0 0.0 0.00 0.00 0.00 86 1018.9
20260508073218 48 125 0.0 0.0 0.00 0.00 0.00 87 1018.9
20260508072714 48 135 0.0 0.0 0.00 0.00 0.00 87 1018.9
20260508072211 48 113 0.0 0.0 0.00 0.00 0.00 86 1018.9
20260508071708 48 116 0.0 0.0 0.00 0.00 0.00 86 1018.9
20260508071206 48 120 0.0 0.0 0.00 0.00 0.00 86 1018.9
20260508070703 48 109 0.0 0.0 0.00 0.00 0.00 86 1018.9
20260508070202 48 114 0.0 0.0 0.00 0.00 0.00 86 1018.9
20260508065659 48 109 0.0 0.0 0.00 0.00 0.00 86 1019.2
20260508065157 48 317 1.0 3.0 0.00 0.00 0.00 87 1019.2
20260508064654 48 93 0.0 1.0 0.00 0.00 0.00 87 1019.2
20260508064152 48 108 0.0 1.0 0.00 0.00 0.00 87 1019.2
20260508063649 48 112 0.0 2.0 0.00 0.00 0.00 87 1018.9
20260508063147 48 83 1.0 1.0 0.00 0.00 0.00 87 1019.2
20260508062644 48 89 1.0 1.0 0.00 0.00 0.00 88 1019.2
20260508062141 48 25 2.0 2.0 0.00 0.00 0.00 88 1019.2
20260508061638 48 93 0.0 1.0 0.00 0.00 0.00 88 1019.2
20260508061136 48 91 2.0 2.0 0.00 0.00 0.00 88 1019.2
20260508060632 48 97 0.0 2.0 0.00 0.00 0.00 88 1019.6
20260508060129 48 341 2.0 3.0 0.00 0.00 0.00 88 1019.2
20260508055625 48 80 1.0 2.0 0.00 0.00 0.00 87 1019.6
20260508055122 48 55 1.0 1.0 0.00 0.00 0.00 87 1019.6
20260508054618 48 62 0.0 1.0 0.00 0.00 0.00 87 1019.6
20260508054116 48 172 1.0 3.0 0.00 0.00 0.00 87 1019.6
20260508053613 48 101 0.0 0.0 0.00 0.00 0.00 87 1019.6
20260508053111 48 113 0.0 1.0 0.00 0.00 0.00 86 1019.6
20260508052608 48 115 0.0 1.0 0.00 0.00 0.00 86 1019.6
20260508052105 48 120 0.0 1.0 0.00 0.00 0.00 86 1019.6
20260508051601 48 69 0.0 0.0 0.00 0.00 0.00 86 1019.6
20260508051056 48 110 0.0 1.0 0.00 0.00 0.00 86 1019.6
20260508050553 48 120 0.0 0.0 0.00 0.00 0.00 86 1019.6
20260508050050 49 114 0.0 0.0 0.00 0.00 0.00 85 1019.6
20260508045546 49 132 0.0 0.0 0.00 0.00 0.00 85 1019.6
20260508045044 49 104 0.0 0.0 0.00 0.00 0.00 84 1019.6
20260508044541 49 101 0.0 1.0 0.00 0.00 0.00 84 1019.6
20260508044037 49 107 0.0 0.0 0.00 0.00 0.00 84 1019.6
20260508043534 49 119 1.0 1.0 0.00 0.00 0.00 84 1019.6
20260508043031 50 39 0.0 1.0 0.00 0.00 0.00 84 1019.6
20260508042528 50 97 0.0 0.0 0.00 0.00 0.00 83 1019.6
20260508042025 50 115 0.0 2.0 0.00 0.00 0.00 83 1019.9
20260508041521 50 105 0.0 1.0 0.00 0.00 0.00 83 1019.9
20260508041018 50 114 0.0 0.0 0.00 0.00 0.00 83 1019.9
20260508040515 50 98 0.0 1.0 0.00 0.00 0.00 83 1019.6
20260508040013 50 108 0.0 0.0 0.00 0.00 0.00 82 1019.9
20260508035509 50 100 0.0 2.0 0.00 0.00 0.00 82 1019.9
20260508035006 51 2 1.0 1.0 0.00 0.00 0.00 82 1019.9
20260508034504 51 145 0.0 0.0 0.00 0.00 0.00 82 1019.6
20260508034000 51 355 2.0 2.0 0.00 0.00 0.00 81 1019.9
20260508033458 51 91 1.0 1.0 0.00 0.00 0.00 81 1019.6
20260508032955 51 112 0.0 1.0 0.00 0.00 0.00 81 1019.6
20260508032453 52 123 0.0 1.0 0.00 0.00 0.00 80 1019.9
20260508031949 52 109 0.0 0.0 0.00 0.00 0.00 80 1019.6
20260508031447 52 110 0.0 0.0 0.00 0.00 0.00 79 1019.6
20260508030942 52 253 0.0 1.0 0.00 0.00 0.00 79 1019.6
20260508030440 53 51 1.0 2.0 0.00 0.00 0.00 79 1019.6
20260508025937 53 138 1.0 2.0 0.00 0.00 0.00 79 1019.6
20260508025433 53 6 1.0 4.0 0.00 0.00 0.00 79 1019.9
20260508024931 53 69 1.0 3.0 0.00 0.00 0.00 78 1019.9
20260508024427 53 345 1.0 3.0 0.00 0.00 0.00 78 1019.9
20260508023923 53 118 1.0 2.0 0.00 0.00 0.00 78 1019.9
20260508023420 54 81 0.0 1.0 0.00 0.00 0.00 78 1019.9
20260508022918 54 105 0.0 3.0 0.00 0.00 0.00 78 1019.9
20260508022413 54 342 2.0 2.0 0.00 0.00 0.00 78 1019.9
20260508021910 54 92 0.0 2.0 0.00 0.00 0.00 78 1019.9
20260508021406 54 96 0.0 4.0 0.00 0.00 0.00 77 1019.9
20260508020902 54 91 0.0 2.0 0.00 0.00 0.00 77 1019.9
20260508020400 54 339 1.0 2.0 0.00 0.00 0.00 77 1020.2
20260508015857 55 82 1.0 4.0 0.00 0.00 0.00 77 1019.9
20260508015355 56 108 1.0 8.0 0.00 0.00 0.00 75 1019.9
20260508014851 58 60 3.0 6.0 0.00 0.00 0.00 71 1019.9
20260508014348 59 77 2.0 2.0 0.00 0.00 0.00 68 1019.9
20260508013843 59 257 1.0 4.0 0.00 0.00 0.00 67 1020.2
20260508013340 61 84 1.0 2.0 0.00 0.00 0.00 64 1020.2
20260508012837 62 280 1.0 2.0 0.00 0.00 0.00 62 1020.2
20260508012335 62 130 0.0 2.0 0.00 0.00 0.00 64 1019.9
20260508011832 62 97 1.0 2.0 0.00 0.00 0.00 63 1020.2
20260508011329 62 117 0.0 1.0 0.00 0.00 0.00 62 1020.2
20260508010821 62 61 2.0 4.0 0.00 0.00 0.00 63 1020.2
20260508010319 63 77 1.0 1.0 0.00 0.00 0.00 62 1020.2
20260508005816 63 105 0.0 2.0 0.00 0.00 0.00 61 1020.2
20260508005313 64 113 0.0 2.0 0.00 0.00 0.00 61 1020.2
20260508004809 63 96 1.0 2.0 0.00 0.00 0.00 61 1020.2
20260508004305 62 114 0.0 2.0 0.00 0.00 0.00 63 1020.2
20260508003801 62 88 1.0 1.0 0.00 0.00 0.00 62 1020.2
20260508003259 62 113 2.0 2.0 0.00 0.00 0.00 62 1020.2
20260508002755 62 111 0.0 2.0 0.00 0.00 0.00 62 1020.2
20260508002252 62 104 0.0 1.0 0.00 0.00 0.00 60 1020.2
20260508001748 63 98 0.0 2.0 0.00 0.00 0.00 60 1020.2
20260508001244 64 114 1.0 2.0 0.00 0.00 0.00 61 1020.2
20260508000741 64 128 2.0 2.0 0.00 0.00 0.00 60 1020.6
20260508000238 63 145 2.0 4.0 0.00 0.00 0.00 60 1020.2
20260507235734 62 83 1.0 2.0 0.00 0.00 0.00 61 1020.2
20260507235232 63 80 1.0 2.0 0.00 0.00 0.00 61 1020.6
20260507234728 63 108 0.0 2.0 0.00 0.00 0.00 61 1020.2
20260507234225 63 207 4.0 4.0 0.00 0.00 0.00 60 1020.2
20260507233721 63 172 4.0 6.0 0.00 0.00 0.00 60 1020.2
20260507233220 63 155 3.0 6.0 0.00 0.00 0.00 60 1020.2
20260507232716 63 150 0.0 2.0 0.00 0.00 0.00 60 1020.6
20260507232214 63 66 1.0 2.0 0.00 0.00 0.00 61 1020.6
20260507231710 62 114 1.0 2.0 0.00 0.00 0.00 62 1020.6
20260507231207 62 116 2.0 2.0 0.00 0.00 0.00 62 1020.6
20260507230703 62 112 1.0 2.0 0.00 0.00 0.00 61 1020.6
20260507230200 63 96 1.0 8.0 0.00 0.00 0.00 59 1020.6
20260507225655 64 111 2.0 3.0 0.00 0.00 0.00 59 1020.9
20260507225152 64 109 0.0 1.0 0.00 0.00 0.00 58 1020.9
20260507224647 65 106 1.0 3.0 0.00 0.00 0.00 58 1020.6
20260507224144 63 107 2.0 3.0 0.00 0.00 0.00 59 1020.9
20260507223640 65 110 2.0 3.0 0.00 0.00 0.00 57 1020.9
20260507223137 64 67 1.0 4.0 0.00 0.00 0.00 59 1020.9
20260507222634 64 194 1.0 6.0 0.00 0.00 0.00 59 1020.9
20260507222130 63 142 2.0 2.0 0.00 0.00 0.00 59 1020.9
20260507221626 63 82 1.0 4.0 0.00 0.00 0.00 60 1020.9
20260507221123 62 97 1.0 3.0 0.00 0.00 0.00 61 1021.3
20260507220620 64 108 4.0 6.0 0.00 0.00 0.00 58 1021.3
20260507220118 64 113 2.0 7.0 0.00 0.00 0.00 59 1021.3
20260507215614 64 103 1.0 3.0 0.00 0.00 0.00 61 1021.3
20260507215112 63 103 1.0 3.0 0.00 0.00 0.00 59 1021.3
20260507214609 64 90 1.0 2.0 0.00 0.00 0.00 59 1021.6
20260507214105 64 77 1.0 3.0 0.00 0.00 0.00 59 1021.3
20260507213601 64 94 2.0 3.0 0.00 0.00 0.00 58 1021.3
20260507213059 64 92 2.0 4.0 0.00 0.00 0.00 59 1021.3
20260507212554 63 126 2.0 4.0 0.00 0.00 0.00 59 1021.6
20260507212051 62 135 1.0 3.0 0.00 0.00 0.00 61 1021.6
20260507211548 62 177 3.0 7.0 0.00 0.00 0.00 62 1021.9
20260507211044 62 96 0.0 3.0 0.00 0.00 0.00 61 1021.6
20260507210542 62 113 2.0 7.0 0.00 0.00 0.00 62 1021.6
20260507210038 61 89 1.0 6.0 0.00 0.00 0.00 63 1021.9
20260507205535 63 195 5.0 7.0 0.00 0.00 0.00 60 1021.9
20260507205031 62 85 4.0 8.0 0.00 0.00 0.00 61 1021.9
20260507204527 60 89 5.0 7.0 0.00 0.00 0.00 65 1021.9
20260507204025 61 124 2.0 8.0 0.00 0.00 0.00 64 1021.9
20260507203523 62 116 3.0 6.0 0.00 0.00 0.00 62 1022.3
20260507203020 62 131 1.0 2.0 0.00 0.00 0.00 64 1022.3
20260507202516 61 117 0.0 3.0 0.00 0.00 0.00 63 1022.3
20260507202012 61 113 1.0 2.0 0.00 0.00 0.00 63 1022.3
20260507201508 62 103 2.0 9.0 0.00 0.00 0.00 62 1022.3
20260507201004 62 105 1.0 6.0 0.00 0.00 0.00 64 1022.3
20260507200500 61 105 2.0 7.0 0.00 0.00 0.00 62 1022.3
20260507195955 60 112 0.0 2.0 0.00 0.00 0.00 65 1022.3
20260507195453 63 62 2.0 3.0 0.00 0.00 0.00 61 1022.3
20260507194951 61 75 1.0 3.0 0.00 0.00 0.00 62 1022.3
20260507194447 59 86 0.0 6.0 0.00 0.00 0.00 67 1022.3
20260507193943 60 98 1.0 2.0 0.00 0.00 0.00 64 1022.3
20260507193440 60 84 1.0 2.0 0.00 0.00 0.00 64 1022.3
20260507192937 61 56 1.0 4.0 0.00 0.00 0.00 64 1022.3
20260507192433 60 163 1.0 4.0 0.00 0.00 0.00 65 1022.3
20260507191930 61 96 2.0 2.0 0.00 0.00 0.00 63 1022.6
20260507191426 59 85 0.0 4.0 0.00 0.00 0.00 66 1022.3
20260507190923 61 104 1.0 3.0 0.00 0.00 0.00 64 1022.3
20260507190421 61 80 1.0 4.0 0.00 0.00 0.00 63 1022.3